Weather History for South Bend, IN

Change the Weather History Date:

Wednesday, January 30, 2013

  Actual Average Record
Temperature  
Mean Temperature 40 °F 25 °F  
Max Temperature 53 °F 32 °F 54 °F (1974)
Min Temperature 26 °F 18 °F -13 °F (1966)
Degree Days  
Heating Degree Days 25 40  
Month to date heating degree days 1102 1220  
Since 1 July heating degree days 3302 3611  
Cooling Degree Days 0 0  
Month to date cooling degree days 0 0  
Year to date cooling degree days 0 0  
Moisture  
Dew Point 41 °F    
Average Humidity 89    
Maximum Humidity 100    
Minimum Humidity 78    
Precipitation  
Precipitation 0.83 in 0.07 in 2.00 in (1909)
Month to date precipitation 4.84 2.23  
Year to date precipitation 4.84 2.23  
Snow  
Snow 1.10 in - - ()
Month to date snowfall 8.8  
Snow Depth 0.00 in    
Sea Level Pressure  
Sea Level Pressure 29.33 in    
Wind  
Wind Speed 13 mph (WSW)    
Max Wind Speed 29 mph    
Max Gust Speed 38 mph    
Visibility 4 miles    
Events Fog , Rain , Snow    
T = Trace of Precipitation, MM = Missing Value Source: NWS Daily Summary

Daily Weather History Graph

Daily Weather History Graph

Search for Another Location

Airport:

Trip Planner

Search our weather history database for the weather conditions in past years. The results will help you decide how hot, cold, wet, or windy it might be!

Date:

Astronomy

Jan. 30, 2013 Rise Set
Actual Time 7:59 AM EST 5:58 PM EST
Civil Twilight 7:29 AM EST 6:28 PM EST
Nautical Twilight 6:56 AM EST 7:01 PM EST
Astronomical Twilight 6:23 AM EST 7:34 PM EST
Moon 10:01 PM EST (1/30) 9:22 AM EST (1/30)
Length of Visible Light 10h 58m
Length of Day
9h 59m
Waning Gibbous, 88% of the Moon is Illuminated
Jan 30
Waning Gibbous
Feb 3
Last Quarter
Feb 10
New
Feb 17
First Quarter
Feb 25
Full

Hourly Weather History & Observations

Time (EST) Temp. Windchill Dew Point Humidity Pressure Visibility Wind Dir Wind Speed Gust Speed Precip Events Conditions
12:22 AM 51.8 °F - 51.8 °F 100% 29.41 in 1.5 mi NW 5.8 mph - 0.07 in Rain Heavy Rain
12:36 AM 51.8 °F - 51.8 °F 100% 29.41 in 2.5 mi WNW 9.2 mph - 0.18 in Rain Heavy Rain
12:45 AM 53.6 °F - 51.8 °F 94% 29.42 in 3.0 mi WNW 9.2 mph - 0.22 in Rain Heavy Rain
12:54 AM 53.1 °F - 52.0 °F 96% 29.42 in 3.0 mi WNW 8.1 mph - 0.27 in Rain Heavy Rain
1:08 AM 53.6 °F - 51.8 °F 94% 29.42 in 4.0 mi WNW 8.1 mph - 0.07 in Rain Rain
1:31 AM 53.6 °F - 51.8 °F 94% 29.39 in 9.0 mi WNW 8.1 mph - 0.12 in Rain Light Rain
1:54 AM 53.1 °F - 52.0 °F 96% 29.41 in 7.0 mi West 6.9 mph - 0.14 in Rain Rain
2:26 AM 51.8 °F - 51.8 °F 100% 29.40 in 5.0 mi SSW 3.5 mph - 0.05 in Rain Rain
2:47 AM 51.8 °F - 50.0 °F 94% 29.38 in 1.8 mi SE 4.6 mph - 0.09 in Rain Rain
2:54 AM 51.1 °F - 50.0 °F 96% 29.37 in 0.8 mi SE 5.8 mph - 0.11 in Rain Rain
3:12 AM 51.8 °F - 50.0 °F 94% 29.36 in 0.5 mi ESE 6.9 mph - 0.03 in Fog , Rain Light Rain
3:27 AM 51.8 °F - 51.8 °F 100% 29.36 in 0.8 mi Calm Calm - 0.05 in Rain Light Rain
3:38 AM 51.8 °F - 50.0 °F 94% 29.35 in 0.5 mi South 3.5 mph - 0.07 in Fog , Rain Rain
3:44 AM 51.8 °F - 50.0 °F 94% 29.36 in 0.5 mi South 4.6 mph - 0.07 in Fog , Rain Light Rain
3:54 AM 51.1 °F - 50.0 °F 96% 29.37 in 0.8 mi SSW 5.8 mph - 0.08 in Rain Light Rain
4:01 AM 51.8 °F - 51.8 °F 100% 29.37 in 1.8 mi SSW 4.6 mph - 0.01 in Rain Rain
4:04 AM 51.8 °F - 51.8 °F 100% 29.38 in 3.0 mi SSW 4.6 mph - 0.01 in Rain Light Rain
4:39 AM 51.8 °F - 50.0 °F 94% 29.40 in 6.0 mi WSW 8.1 mph - 0.06 in Rain Light Rain
4:54 AM 51.1 °F - 50.0 °F 96% 29.38 in 6.0 mi SW 5.8 mph - 0.08 in Rain Light Rain
5:39 AM 51.8 °F - 50.0 °F 94% 29.33 in 1.8 mi South 5.8 mph - 0.01 in   Overcast
5:47 AM 50.0 °F - 50.0 °F 100% 29.31 in 0.5 mi SE 9.2 mph - 0.01 in Fog , Rain Light Rain
5:54 AM 50.0 °F - 50.0 °F 100% 29.29 in 0.5 mi SE 10.4 mph - 0.01 in Fog , Rain Light Rain
6:13 AM 51.8 °F - 50.0 °F 94% 29.31 in 1.0 mi South 6.9 mph - 0.00 in Rain Light Rain
6:23 AM 51.8 °F - 50.0 °F 94% 29.34 in 3.0 mi South 8.1 mph - 0.00 in   Overcast
6:47 AM 46.4 °F 40.1 °F 46.4 °F 100% 29.34 in 1.5 mi WNW 15.0 mph - 0.00 in   Overcast
6:54 AM 44.6 °F 38.8 °F 44.6 °F 100% 29.35 in 0.8 mi WNW 11.5 mph - N/A Rain Light Rain
7:43 AM 42.8 °F - 42.8 °F 100% 29.31 in 0.5 mi Calm Calm - 0.00 in Fog Fog
7:54 AM 43.0 °F - 42.1 °F 97% 29.31 in 0.5 mi Calm Calm - 0.00 in Fog Fog
8:43 AM 42.8 °F 38.6 °F 41.0 °F 93% 29.33 in 1.0 mi West 6.9 mph - N/A   Overcast
8:54 AM 41.0 °F 37.1 °F 39.9 °F 96% 29.32 in 1.0 mi NW 5.8 mph - 0.00 in Rain Light Rain
9:54 AM 41.0 °F 39.0 °F 39.9 °F 96% 29.33 in 1.0 mi WSW 3.5 mph - 0.01 in Rain Light Rain
10:31 AM 41.0 °F 39.0 °F 39.2 °F 93% 29.30 in 2.5 mi South 3.5 mph - 0.00 in Rain Light Rain
10:54 AM 42.1 °F 37.7 °F 41.0 °F 96% 29.30 in 2.0 mi South 6.9 mph - 0.00 in   Overcast
11:54 AM 44.1 °F 40.1 °F 43.0 °F 96% 29.26 in 1.0 mi South 6.9 mph - 0.00 in Rain Light Rain
12:54 PM 48.9 °F - 46.9 °F 93% 29.22 in 10.0 mi SSW 16.1 mph - 0.01 in Rain Light Rain
1:10 PM 50.0 °F - 46.4 °F 87% 29.22 in 10.0 mi SSW 13.8 mph 23.0 mph 0.00 in   Overcast
1:21 PM 50.0 °F - 46.4 °F 87% 29.22 in 10.0 mi SSW 16.1 mph 24.2 mph 0.00 in   Overcast
1:33 PM 51.8 °F - 46.4 °F 82% 29.21 in 10.0 mi SSW 21.9 mph 32.2 mph 0.00 in   Overcast
1:54 PM 51.1 °F - 46.9 °F 86% 29.20 in 10.0 mi SSW 16.1 mph 24.2 mph 0.00 in   Overcast
2:19 PM 48.2 °F - 44.6 °F 87% 29.19 in 2.5 mi SW 20.7 mph 32.2 mph 0.06 in Rain Heavy Rain
2:24 PM 50.0 °F - 44.6 °F 82% 29.18 in 10.0 mi SW 17.3 mph 31.1 mph 0.06 in Rain Light Rain
2:54 PM 48.9 °F - 42.1 °F 77% 29.19 in 10.0 mi SW 17.3 mph 24.2 mph 0.06 in Rain Light Rain
3:31 PM 46.4 °F 38.1 °F 39.2 °F 76% 29.19 in 10.0 mi SW 24.2 mph 35.7 mph 0.00 in   Overcast
3:52 PM 42.8 °F 33.3 °F 39.2 °F 87% 29.19 in 10.0 mi WSW 24.2 mph 28.8 mph 0.00 in   Overcast
3:54 PM 43.0 °F 33.8 °F 37.9 °F 82% 29.20 in 10.0 mi WSW 23.0 mph 28.8 mph 0.00 in   Overcast
4:54 PM 39.0 °F 30.6 °F 35.1 °F 86% 29.22 in 10.0 mi WSW 15.0 mph 24.2 mph 0.00 in Rain Light Rain
5:11 PM 39.2 °F 30.2 °F 33.8 °F 81% 29.21 in 10.0 mi WSW 17.3 mph 24.2 mph 0.00 in   Overcast
5:54 PM 37.9 °F 28.5 °F 34.0 °F 86% 29.24 in 8.0 mi WSW 17.3 mph 25.3 mph 0.00 in Rain Light Rain
6:07 PM 37.4 °F 28.2 °F 33.8 °F 87% 29.24 in 9.0 mi West 16.1 mph - 0.00 in Rain Light Rain
6:29 PM 33.8 °F 22.5 °F 32.0 °F 93% 29.27 in 1.5 mi WNW 19.6 mph 27.6 mph 0.01 in Snow Light Snow
6:54 PM 33.1 °F 21.5 °F 30.9 °F 92% 29.30 in 1.2 mi WNW 19.6 mph 26.5 mph 0.01 in Snow Light Snow
7:54 PM 30.9 °F 18.7 °F 28.0 °F 89% 29.36 in 1.5 mi WNW 19.6 mph 29.9 mph 0.00 in Snow Light Snow
8:00 PM 30.2 °F 17.8 °F 28.4 °F 93% 29.34 in 2.0 mi WNW 19.6 mph 28.8 mph 0.00 in Snow Light Snow
8:03 PM 30.2 °F 17.1 °F 28.4 °F 93% 29.35 in 1.8 mi WNW 21.9 mph 28.8 mph 0.00 in Snow Light Snow
8:15 PM 30.2 °F 18.9 °F 28.4 °F 93% 29.35 in 1.2 mi WNW 16.1 mph 23.0 mph 0.01 in Snow Light Snow
8:50 PM 30.2 °F 18.1 °F 26.6 °F 86% 29.37 in 2.5 mi WNW 18.4 mph 29.9 mph 0.01 in Snow Light Snow
8:54 PM 30.0 °F 17.2 °F 26.1 °F 85% 29.39 in 2.5 mi WNW 20.7 mph 26.5 mph 0.01 in Snow Light Snow
9:01 PM 30.2 °F 17.8 °F 26.6 °F 86% 29.37 in 2.5 mi WNW 19.6 mph 28.8 mph 0.00 in Snow Light Snow
9:54 PM 30.0 °F 16.0 °F 24.1 °F 79% 29.42 in 6.0 mi WNW 25.3 mph 33.4 mph 0.00 in Snow Light Snow
10:29 PM 28.4 °F 16.6 °F 24.8 °F 86% 29.42 in 1.8 mi West 16.1 mph 26.5 mph 0.00 in Snow Light Snow
10:43 PM 28.4 °F 16.2 °F 24.8 °F 86% 29.44 in 0.8 mi WNW 17.3 mph - 0.00 in Snow Light Snow
10:48 PM 28.4 °F 16.2 °F 24.8 °F 86% 29.44 in 1.0 mi WNW 17.3 mph - 0.00 in Snow Light Snow
10:54 PM 28.0 °F 15.7 °F 25.0 °F 88% 29.47 in 1.5 mi West 17.3 mph 26.5 mph 0.00 in Snow Light Snow
11:08 PM 28.4 °F 15.8 °F 24.8 °F 86% 29.45 in 2.0 mi WNW 18.4 mph 26.5 mph 0.00 in Snow Light Snow
11:49 PM 26.6 °F 11.4 °F 21.2 °F 80% 29.48 in 3.0 mi West 25.3 mph 35.7 mph 0.00 in Snow Light Snow
11:54 PM 27.0 °F 12.2 °F 21.0 °F 78% 29.51 in 3.0 mi West 24.2 mph 35.7 mph 0.00 in Snow Light Snow